EJA202 KLAS-KASE

Flight info

Callsign EJA202
Flight time 1h 15m
Altitude 41000
Route GIDGT3 TUKRR SLIPY LOYYD1
Aircraft CL60/M-SBDE1E2E3FGHIJ1J4J5J7M3RWXYZ/LB1V1D1

Departure

Time 2026-03-24 16:11
Airport Harry Reid International Airport (KLAS)

Arrival

Time 2026-03-24 17:26
Airport Aspen-Pitkin County Airport (Sardy Field) (KASE)
Time Latitude Longitude Altitude Speed Heading
2026-03-24 15:31 36.08091 -115.17139 2172 ft 0 kts 90°
2026-03-24 15:58 36.08091 -115.17136 2172 ft 1 kts 89°
2026-03-24 15:58 36.08092 -115.17123 2172 ft 0 kts 83°
2026-03-24 16:00 36.08094 -115.17110 2171 ft 0 kts 78°
2026-03-24 16:01 36.08098 -115.17100 2171 ft 4 kts 66°
2026-03-24 16:01 36.08109 -115.17072 2171 ft 2 kts 60°
2026-03-24 16:01 36.08122 -115.17047 2170 ft 0 kts 57°
2026-03-24 16:01 36.08123 -115.17046 2170 ft 1 kts 56°
2026-03-24 16:02 36.08131 -115.17029 2170 ft 3 kts 59°
2026-03-24 16:02 36.08144 -115.17002 2169 ft 0 kts 72°
2026-03-24 16:02 36.08144 -115.17001 2169 ft 0 kts 73°
2026-03-24 16:03 36.08149 -115.16965 2168 ft 6 kts 81°
2026-03-24 16:03 36.08181 -115.16903 2166 ft 11 kts 24°
2026-03-24 16:03 36.08275 -115.16851 2163 ft 17 kts 25°
2026-03-24 16:04 36.08397 -115.16782 2159 ft 21 kts 25°
2026-03-24 16:04 36.08468 -115.16740 2156 ft 10 kts 25°
2026-03-24 16:04 36.08551 -115.16694 2153 ft 15 kts 26°
2026-03-24 16:04 36.08650 -115.16637 2150 ft 18 kts 24°
2026-03-24 16:05 36.08775 -115.16566 2145 ft 21 kts 24°
2026-03-24 16:05 36.08908 -115.16492 2140 ft 19 kts 28°
2026-03-24 16:05 36.09025 -115.16425 2136 ft 18 kts 24°
2026-03-24 16:05 36.09154 -115.16350 2132 ft 23 kts 25°
2026-03-24 16:06 36.09309 -115.16263 2124 ft 25 kts 26°
2026-03-24 16:06 36.09470 -115.16169 2119 ft 23 kts 24°
2026-03-24 16:06 36.09621 -115.16083 2112 ft 21 kts 27°
2026-03-24 16:06 36.09754 -115.16006 2108 ft 21 kts 25°
2026-03-24 16:07 36.09881 -115.15934 2104 ft 19 kts 25°
2026-03-24 16:07 36.09964 -115.15836 2102 ft 14 kts 70°
2026-03-24 16:07 36.09985 -115.15754 2100 ft 4 kts 88°
2026-03-24 16:07 36.09985 -115.15752 2100 ft 0 kts 91°
2026-03-24 16:09 36.09985 -115.15751 2100 ft 0 kts 91°
2026-03-24 16:10 36.09971 -115.15699 2099 ft 12 kts 120°
2026-03-24 16:10 36.09887 -115.15689 2100 ft 18 kts 208°
2026-03-24 16:10 36.09535 -115.15891 2110 ft 106 kts 204°
2026-03-24 16:10 36.08611 -115.16412 2398 ft 171 kts 204°
2026-03-24 16:11 36.07480 -115.17072 3312 ft 194 kts 206°
2026-03-24 16:11 36.06390 -115.18234 4182 ft 220 kts 241°
2026-03-24 16:11 36.06127 -115.20061 5103 ft 227 kts 277°
2026-03-24 16:11 36.06464 -115.22131 5908 ft 262 kts 281°
2026-03-24 16:12 36.06874 -115.24407 7137 ft 280 kts 284°
2026-03-24 16:12 36.07687 -115.26608 8553 ft 287 kts 305°
2026-03-24 16:12 36.09104 -115.28280 9837 ft 294 kts 328°
2026-03-24 16:12 36.10994 -115.29140 11101 ft 299 kts 348°
2026-03-24 16:13 36.12681 -115.29307 12051 ft 306 kts
2026-03-24 16:13 36.14711 -115.28669 13451 ft 303 kts 25°
2026-03-24 16:13 36.16370 -115.27246 14883 ft 297 kts 44°
2026-03-24 16:13 36.17534 -115.25188 16058 ft 300 kts 65°
2026-03-24 16:14 36.18331 -115.22756 16818 ft 318 kts 68°
2026-03-24 16:14 36.19069 -115.20406 17169 ft 343 kts 68°
2026-03-24 16:14 36.19616 -115.17487 17845 ft 360 kts 86°
2026-03-24 16:14 36.19635 -115.14339 18700 ft 370 kts 90°
2026-03-24 16:15 36.19627 -115.11174 19626 ft 375 kts 90°
2026-03-24 16:15 36.19622 -115.07974 20536 ft 379 kts 90°
2026-03-24 16:15 36.19618 -115.04692 21454 ft 383 kts 90°
2026-03-24 16:15 36.19614 -115.01410 22264 ft 388 kts 90°
2026-03-24 16:16 36.19608 -114.98025 23074 ft 394 kts 90°
2026-03-24 16:16 36.19603 -114.94659 23923 ft 398 kts 90°
2026-03-24 16:16 36.19597 -114.91224 24787 ft 401 kts 90°
2026-03-24 16:16 36.19591 -114.87775 25615 ft 405 kts 90°
2026-03-24 16:17 36.19584 -114.84290 26419 ft 408 kts 89°
2026-03-24 16:17 36.19576 -114.80782 27194 ft 411 kts 89°
2026-03-24 16:17 36.19568 -114.77238 27919 ft 415 kts 89°
2026-03-24 16:17 36.19558 -114.73671 28625 ft 418 kts 89°
2026-03-24 16:18 36.19548 -114.70092 29268 ft 421 kts 89°
2026-03-24 16:18 36.19539 -114.66456 29840 ft 426 kts 89°
2026-03-24 16:18 36.19530 -114.62762 30365 ft 431 kts 89°
2026-03-24 16:18 36.19521 -114.59064 30839 ft 437 kts 89°
2026-03-24 16:19 36.19510 -114.55261 31319 ft 441 kts 89°
2026-03-24 16:19 36.19498 -114.51478 31896 ft 443 kts 89°
2026-03-24 16:19 36.19485 -114.47634 32390 ft 446 kts 89°
2026-03-24 16:19 36.19471 -114.43781 32814 ft 450 kts 89°
2026-03-24 16:20 36.19455 -114.39893 33229 ft 453 kts 89°
2026-03-24 16:20 36.19438 -114.35982 33679 ft 456 kts 89°
2026-03-24 16:20 36.19420 -114.32061 34055 ft 459 kts 90°
2026-03-24 16:20 36.19400 -114.28065 34608 ft 459 kts 90°
2026-03-24 16:21 36.19427 -114.24142 35337 ft 453 kts 86°
2026-03-24 16:21 36.19793 -114.20323 36069 ft 448 kts 82°
2026-03-24 16:21 36.20262 -114.16481 36712 ft 445 kts 82°
2026-03-24 16:21 36.20714 -114.12732 37245 ft 443 kts 82°
2026-03-24 16:22 36.21169 -114.08942 37691 ft 443 kts 82°
2026-03-24 16:22 36.21624 -114.05138 38076 ft 444 kts 82°
2026-03-24 16:22 36.22078 -114.01327 38460 ft 444 kts 82°
2026-03-24 16:22 36.22525 -113.97566 38817 ft 444 kts 82°
2026-03-24 16:23 36.22971 -113.93803 39145 ft 445 kts 82°
2026-03-24 16:23 36.23417 -113.90017 39477 ft 446 kts 82°
2026-03-24 16:23 36.23866 -113.86202 39842 ft 444 kts 82°
2026-03-24 16:23 36.24310 -113.82416 40156 ft 443 kts 82°
2026-03-24 16:24 36.24748 -113.78676 40434 ft 443 kts 82°
2026-03-24 16:24 36.25191 -113.74876 40673 ft 443 kts 82°
2026-03-24 16:24 36.25627 -113.71124 40921 ft 442 kts 82°
2026-03-24 16:24 36.26059 -113.67390 41166 ft 442 kts 82°
2026-03-24 16:25 36.26494 -113.63628 41299 ft 444 kts 82°
2026-03-24 16:25 36.27376 -113.55960 41333 ft 452 kts 82°
2026-03-24 16:26 36.28262 -113.48205 41331 ft 459 kts 82°
2026-03-24 16:26 36.29154 -113.40353 41333 ft 465 kts 82°
2026-03-24 16:27 36.30060 -113.32333 41319 ft 472 kts 82°
2026-03-24 16:27 36.31052 -113.24259 41344 ft 474 kts 77°
2026-03-24 16:28 36.33272 -113.16602 41344 ft 473 kts 66°
2026-03-24 16:28 36.35894 -113.09151 41353 ft 472 kts 66°
2026-03-24 16:29 36.38514 -113.01682 41337 ft 472 kts 66°
2026-03-24 16:29 36.41119 -112.94244 41360 ft 473 kts 66°
2026-03-24 16:30 36.43736 -112.86758 41356 ft 473 kts 66°
2026-03-24 16:30 36.46347 -112.79275 41362 ft 473 kts 66°
2026-03-24 16:31 36.48949 -112.71800 41350 ft 473 kts 66°
2026-03-24 16:31 36.51562 -112.64275 41363 ft 474 kts 66°
2026-03-24 16:32 36.54169 -112.56751 41374 ft 476 kts 66°
2026-03-24 16:32 36.56771 -112.49226 41357 ft 475 kts 66°
2026-03-24 16:33 36.59389 -112.41635 41377 ft 475 kts 65°
2026-03-24 16:33 36.61972 -112.34127 41397 ft 475 kts 66°
2026-03-24 16:34 36.64591 -112.26497 41422 ft 475 kts 66°
2026-03-24 16:34 36.67165 -112.18979 41399 ft 476 kts 66°
2026-03-24 16:35 36.69771 -112.11348 41360 ft 477 kts 66°
2026-03-24 16:35 36.72355 -112.03762 41329 ft 477 kts 65°
2026-03-24 16:36 36.74947 -111.96137 41338 ft 478 kts 65°
2026-03-24 16:36 36.77535 -111.88501 41329 ft 478 kts 65°
2026-03-24 16:37 36.80105 -111.80898 41312 ft 477 kts 65°
2026-03-24 16:37 36.82669 -111.73295 41311 ft 477 kts 66°
2026-03-24 16:38 36.85257 -111.65683 41275 ft 476 kts 63°
2026-03-24 16:38 36.88427 -111.58439 41153 ft 477 kts 58°
2026-03-24 16:39 36.91690 -111.51149 41175 ft 477 kts 59°
2026-03-24 16:39 36.94908 -111.43942 41185 ft 476 kts 58°
2026-03-24 16:40 36.98155 -111.36650 41181 ft 478 kts 58°
2026-03-24 16:40 37.01373 -111.29404 41198 ft 478 kts 59°
2026-03-24 16:41 37.04585 -111.22151 41224 ft 478 kts 59°
2026-03-24 16:41 37.07810 -111.14855 41286 ft 478 kts 58°
2026-03-24 16:42 37.11021 -111.07571 41299 ft 478 kts 59°
2026-03-24 16:42 37.14235 -111.00263 41278 ft 478 kts 59°
2026-03-24 16:43 37.19043 -110.89300 41293 ft 478 kts 58°
2026-03-24 16:43 37.22218 -110.82038 41298 ft 477 kts 58°
2026-03-24 16:44 37.25404 -110.74736 41287 ft 478 kts 58°
2026-03-24 16:44 37.28591 -110.67416 41300 ft 476 kts 58°
2026-03-24 16:45 37.31772 -110.60092 41271 ft 477 kts 58°
2026-03-24 16:45 37.34928 -110.52808 41262 ft 477 kts 58°
2026-03-24 16:46 37.38099 -110.45473 41287 ft 477 kts 58°
2026-03-24 16:46 37.41267 -110.38129 41311 ft 477 kts 58°
2026-03-24 16:47 37.44429 -110.30782 41320 ft 476 kts 59°
2026-03-24 16:47 37.47572 -110.23462 41338 ft 477 kts 58°
2026-03-24 16:48 37.50687 -110.16190 41345 ft 477 kts 58°
2026-03-24 16:48 37.53837 -110.08821 41340 ft 478 kts 58°
2026-03-24 16:49 37.56987 -110.01434 41348 ft 479 kts 58°
2026-03-24 16:49 37.60139 -109.94025 41360 ft 478 kts 58°
2026-03-24 16:50 37.63288 -109.86605 41362 ft 477 kts 58°
2026-03-24 16:50 37.66425 -109.79199 41364 ft 477 kts 58°
2026-03-24 16:51 37.69534 -109.71842 41374 ft 477 kts 58°
2026-03-24 16:52 37.74236 -109.60680 41380 ft 479 kts 58°
2026-03-24 16:52 37.77390 -109.53288 41285 ft 479 kts 54°
2026-03-24 16:53 37.81381 -109.46709 41399 ft 466 kts 40°
2026-03-24 16:53 37.86383 -109.41530 41376 ft 460 kts 27°
2026-03-24 16:54 37.91840 -109.37353 41363 ft 461 kts 26°
2026-03-24 16:54 37.97389 -109.33123 41362 ft 461 kts 26°
2026-03-24 16:55 38.02900 -109.28915 41367 ft 460 kts 26°
2026-03-24 16:55 38.08378 -109.24726 41378 ft 461 kts 26°
2026-03-24 16:56 38.13800 -109.20360 41372 ft 462 kts 29°
2026-03-24 16:56 38.19170 -109.15814 41351 ft 462 kts 29°
2026-03-24 16:57 38.24496 -109.11301 41351 ft 462 kts 28°
2026-03-24 16:57 38.29882 -109.06731 41361 ft 462 kts 28°
2026-03-24 16:58 38.35231 -109.02183 41339 ft 462 kts 28°
2026-03-24 16:58 38.40569 -108.97638 41349 ft 462 kts 28°
2026-03-24 16:59 38.45907 -108.93085 41331 ft 462 kts 28°
2026-03-24 16:59 38.51227 -108.88539 41370 ft 461 kts 28°
2026-03-24 17:00 38.56569 -108.83965 41385 ft 461 kts 28°
2026-03-24 17:00 38.61888 -108.79406 41358 ft 462 kts 28°
2026-03-24 17:00 38.64606 -108.77074 40942 ft 470 kts 28°
2026-03-24 17:01 38.67290 -108.74768 40383 ft 468 kts 28°
2026-03-24 17:01 38.69977 -108.72453 39813 ft 465 kts 27°
2026-03-24 17:01 38.72645 -108.70146 39214 ft 458 kts 28°
2026-03-24 17:01 38.75143 -108.67695 38637 ft 456 kts 33°
2026-03-24 17:02 38.77439 -108.64905 37985 ft 455 kts 40°
2026-03-24 17:02 38.79511 -108.61779 37356 ft 458 kts 46°
2026-03-24 17:02 38.81299 -108.58422 36641 ft 465 kts 52°
2026-03-24 17:02 38.82809 -108.54775 36051 ft 465 kts 59°
2026-03-24 17:03 38.84058 -108.50884 35471 ft 470 kts 63°
2026-03-24 17:03 38.85200 -108.46996 34860 ft 472 kts 63°
2026-03-24 17:03 38.86354 -108.43075 34207 ft 471 kts 63°
2026-03-24 17:03 38.87510 -108.39144 33537 ft 472 kts 63°
2026-03-24 17:04 38.88660 -108.35219 32930 ft 470 kts 63°
2026-03-24 17:04 38.89816 -108.31271 32200 ft 467 kts 64°
2026-03-24 17:04 38.90945 -108.27406 31627 ft 460 kts 64°
2026-03-24 17:04 38.92063 -108.23581 31006 ft 458 kts 63°
2026-03-24 17:05 38.93176 -108.19763 30392 ft 458 kts 64°
2026-03-24 17:05 38.94292 -108.15935 29779 ft 451 kts 64°
2026-03-24 17:05 38.95374 -108.12209 29206 ft 450 kts 64°
2026-03-24 17:05 38.96464 -108.08457 28758 ft 439 kts 64°
2026-03-24 17:06 38.97514 -108.04830 28225 ft 443 kts 64°
2026-03-24 17:06 38.98583 -108.01135 28010 ft 431 kts 64°
2026-03-24 17:06 38.99639 -107.97490 27535 ft 437 kts 64°
2026-03-24 17:06 39.00686 -107.93868 27100 ft 434 kts 64°
2026-03-24 17:07 39.01736 -107.90228 26665 ft 431 kts 64°
2026-03-24 17:07 39.02761 -107.86670 26216 ft 429 kts 64°
2026-03-24 17:07 39.03800 -107.83061 25785 ft 426 kts 64°
2026-03-24 17:07 39.04820 -107.79509 25363 ft 425 kts 64°
2026-03-24 17:08 39.05839 -107.75960 24902 ft 422 kts 64°
2026-03-24 17:08 39.06850 -107.72433 24495 ft 421 kts 64°
2026-03-24 17:08 39.07857 -107.68916 24039 ft 418 kts 64°
2026-03-24 17:08 39.08859 -107.65409 23633 ft 417 kts 64°
2026-03-24 17:09 39.09849 -107.61940 23180 ft 414 kts 64°
2026-03-24 17:09 39.10855 -107.58454 22730 ft 414 kts 64°
2026-03-24 17:09 39.11858 -107.55033 22316 ft 412 kts 64°
2026-03-24 17:09 39.12864 -107.51598 21894 ft 410 kts 64°
2026-03-24 17:10 39.13873 -107.48148 21425 ft 408 kts 63°
2026-03-24 17:10 39.14856 -107.44778 21093 ft 404 kts 64°
2026-03-24 17:10 39.15779 -107.41379 20675 ft 407 kts 70°
2026-03-24 17:10 39.16124 -107.37732 20263 ft 412 kts 86°
2026-03-24 17:11 39.16070 -107.34048 20159 ft 409 kts 87°
2026-03-24 17:11 39.16021 -107.30364 19920 ft 415 kts 88°
2026-03-24 17:11 39.15971 -107.26687 19730 ft 412 kts 87°
2026-03-24 17:11 39.15921 -107.23013 19452 ft 412 kts 87°
2026-03-24 17:12 39.15870 -107.19291 19023 ft 412 kts 88°
2026-03-24 17:12 39.15816 -107.15628 18879 ft 407 kts 88°
2026-03-24 17:12 39.15764 -107.12035 18794 ft 406 kts 88°
2026-03-24 17:12 39.15710 -107.08373 18371 ft 412 kts 88°
2026-03-24 17:13 39.15654 -107.04727 18107 ft 402 kts 88°
2026-03-24 17:13 39.15598 -107.01128 17750 ft 406 kts 88°
2026-03-24 17:13 39.15540 -106.97521 17662 ft 400 kts 88°
2026-03-24 17:13 39.15483 -106.93908 17319 ft 405 kts 88°
2026-03-24 17:14 39.15614 -106.90351 17169 ft 394 kts 76°
2026-03-24 17:14 39.16427 -106.87038 16942 ft 384 kts 58°
2026-03-24 17:14 39.17858 -106.84219 16695 ft 372 kts 45°
2026-03-24 17:14 39.19522 -106.81695 16448 ft 369 kts 43°
2026-03-24 17:15 39.21205 -106.79144 16234 ft 368 kts 44°
2026-03-24 17:15 39.22848 -106.76649 16015 ft 367 kts 44°
2026-03-24 17:15 39.24510 -106.74125 15790 ft 366 kts 44°
2026-03-24 17:15 39.26134 -106.71654 15577 ft 365 kts 44°
2026-03-24 17:16 39.27876 -106.69317 15362 ft 356 kts 32°
2026-03-24 17:16 39.29982 -106.67786 15116 ft 344 kts 14°
2026-03-24 17:16 39.32310 -106.67195 14832 ft 334 kts 357°
2026-03-24 17:16 39.34505 -106.67509 14455 ft 325 kts 341°
2026-03-24 17:17 39.36603 -106.68486 14184 ft 309 kts 335°
2026-03-24 17:17 39.38571 -106.69450 13946 ft 297 kts 338°
2026-03-24 17:17 39.40510 -106.70213 13779 ft 284 kts 339°
2026-03-24 17:17 39.42399 -106.70940 13750 ft 284 kts 340°
2026-03-24 17:18 39.44297 -106.71676 13759 ft 288 kts 339°
2026-03-24 17:18 39.46199 -106.72501 13633 ft 285 kts 331°
2026-03-24 17:18 39.47737 -106.74010 13620 ft 279 kts 309°
2026-03-24 17:18 39.48889 -106.76038 13606 ft 280 kts 304°
2026-03-24 17:19 39.50000 -106.78095 13616 ft 281 kts 304°
2026-03-24 17:19 39.51079 -106.80214 13611 ft 280 kts 297°
2026-03-24 17:19 39.51596 -106.82634 13614 ft 282 kts 278°
2026-03-24 17:19 39.51765 -106.85155 13609 ft 282 kts 277°
2026-03-24 17:20 39.51936 -106.87704 13611 ft 282 kts 277°
2026-03-24 17:20 39.52026 -106.90228 13513 ft 286 kts 269°
2026-03-24 17:20 39.51609 -106.92780 13323 ft 289 kts 253°
2026-03-24 17:20 39.50648 -106.95041 13148 ft 295 kts 237°
2026-03-24 17:21 39.49151 -106.96924 12944 ft 302 kts 219°
2026-03-24 17:21 39.47259 -106.98150 12744 ft 309 kts 201°
2026-03-24 17:21 39.45136 -106.98566 12547 ft 314 kts 182°
2026-03-24 17:21 39.42968 -106.98147 12354 ft 309 kts 169°
2026-03-24 17:22 39.40941 -106.97540 12056 ft 296 kts 169°
2026-03-24 17:22 39.38957 -106.96959 11696 ft 286 kts 169°
2026-03-24 17:22 39.37068 -106.96401 11352 ft 275 kts 169°
2026-03-24 17:22 39.35291 -106.95879 10918 ft 244 kts 169°
2026-03-24 17:23 39.33731 -106.95425 10613 ft 225 kts 168°
2026-03-24 17:23 39.32279 -106.94991 10228 ft 202 kts 165°
2026-03-24 17:23 39.31092 -106.94283 9977 ft 184 kts 146°
2026-03-24 17:23 39.30151 -106.93192 9674 ft 176 kts 129°
2026-03-24 17:24 39.29561 -106.91894 9404 ft 160 kts 111°
2026-03-24 17:24 39.29044 -106.90682 9170 ft 155 kts 128°
2026-03-24 17:24 39.28258 -106.89786 8945 ft 150 kts 146°
2026-03-24 17:24 39.27301 -106.89225 8666 ft 151 kts 160°
2026-03-24 17:25 39.26325 -106.88780 8326 ft 147 kts 155°
2026-03-24 17:25 39.25381 -106.88313 8157 ft 145 kts 159°
2026-03-24 17:25 39.24424 -106.87869 7993 ft 146 kts 157°
2026-03-24 17:25 39.23477 -106.87432 7776 ft 144 kts 156°
2026-03-24 17:26 39.22568 -106.87003 7731 ft 123 kts 162°
2026-03-24 17:26 39.21968 -106.86718 7776 ft 62 kts 159°
2026-03-24 17:26 39.21713 -106.86602 7794 ft 19 kts 156°
2026-03-24 17:26 39.21698 -106.86498 7796 ft 12 kts 49°
2026-03-24 17:27 39.21793 -106.86512 7790 ft 18 kts 339°
2026-03-24 17:27 39.21914 -106.86569 7782 ft 21 kts 339°
2026-03-24 17:27 39.22037 -106.86626 7773 ft 16 kts 340°
2026-03-24 17:27 39.22125 -106.86635 7768 ft 12 kts 41°
2026-03-24 17:28 39.22212 -106.86594 7763 ft 17 kts 340°
2026-03-24 17:28 39.22277 -106.86652 7757 ft 8 kts 315°
2026-03-24 17:28 39.22281 -106.86672 7756 ft 0 kts 255°